User: anonymous   Login
Location: Unspecified
(0.0000°N, 0.0000°E)
Time: 16:02:20
(UTC+01:00)
Language:

ARIANE 5 R/B - Orbit

View from above orbital plane
View from above orbital plane
View from above satellite
View from above satellite

Ground track
Ground track

The orbit data is extracted from the following two-line orbital elements,

1 28787U 05028B   14353.98639280 -.00000107  00000-0  51207-3 0  5890
2 28787 007.3653 025.5436 7175022 234.8441 014.0648 02.26556062 77475
Epoch (UTC): 19 December 2014 23:40:24
Eccentricity: 0.7175022
inclination: 7.3653°
perigee height: 539 km
apogee height: 35679 km
right ascension of ascending node: 25.5436°
argument of perigee: 234.8441°
revolutions per day: 2.26556062
mean anomaly at epoch: 14.0648°
orbit number at epoch: 7747

The dashed part of the orbit path shows where the satellite is in the earth's shadow,  

DLR